STARLINK-33700, 63484

Orbit data source: Space-Track

STARLINK-33700, 63484 is a payload satellite owned by SpaceX/Seattle (US) in LEO that was launched on Sun, 06 Apr 2025 UTC via an FALCON 9 launch vehicle from the Air Force Eastern Test Range (AFETR). Payload-class satellites include a variety of spacecraft equipped with specific instruments for various scientific and technological missions. These include communications satellites like Starlink; space stations such as the ISS; scientific satellites like the Hubble; Earth observation satellites from companies like Planet Labs, Umbra, and HawkEye 360; GPS; miniature CubeSats for education and research; and military/defense satellites.

Loading next visibility...
Identifier
63484, 2025-070AA
Orbit
LEO
Country
Flag of USUS
Related business
Manufacturer
SpaceX/Seattle
Mission
Operational Commercial Communications
Bus & Motor
STARLINK V2MO, Unknown motor
Mass
575 kg wet, ~530 kg dry
Launch date (UTC)
2025-04-06 (1 year ago)
Launch vehicle
FALCON 9
Launch site
Air Force Eastern Test Range (AFETR)
Object type
Payload
Rocket body
Debris
Shape & HBR
Box + 2 Pan, 17.7 m
Radar Cross Section
36.964 m², Large (>1 m²)

Expand to show TLE details & history
Last TLE update: 1 day ago

TLE from 1 day ago
0 STARLINK-33700
1 63484U 25070AA  26169.03255789  .00018466  00000-0  67845-3 0  9990
2 63484  43.0055  53.0049 0000573 265.8818  94.1968 15.27601189 68324
Epoch: 2026-06-18T00:46Z
TLE epoch observation values (Epoch: 2026-06-18T00:46:53.001Z)
Latitude
-0.00004°
Longitude
135.00231°
Altitude
482.79 km
Speed
7.626 km/s
True Right ascension
03h 32m 01s
True Declination
0° 00' 00"
Sunlit
Object was in daylight at epoch
Visualization orbit readout
Latitude
Unknown
Longitude
Unknown
Altitude
Unknown
Speed
Unknown
Apparent Right ascension
Unknown
Apparent Declination
Unknown
Sunlit
N/A
Visualization observer readout
Local Sidereal Time
14:05:33
Azimuth
Unknown
Elevation
Unknown
Doppler factor
Unknown
Orbital elements
Apogee altitude
485.323 km
Perigee altitude
484.537 km
Semi-major axis
6,863.067 km
Eccentricity
0.00006
Inclination
43.0055°
RAAN
53.0049°
Arg. of periapsis
265.8818°
True anomaly
94.20335°
Mean anomaly
94.1968°
Eccentric anomaly
94.20007°
Mean motion
3.81738 °/min
Orbital period
94.31 mins
BSTAR
0.00067845
Loading maneuver chart data...
Computing Atmospheric mass density...
Loading historical data...
Loading historical data...
Loading historical data...
Loading historical data...
Loading historical data...
Loading historical data...
Loading historical data...

Documentation

Showing up to 5 results
|